星链-30608 (STARLINK-30608 )

导读

STARLINK-30608是美国太空探索技术公司Starlink星链互联网星座的一员,于2023年10月18日发射入轨,属于星链低轨卫星组网的批次卫星之一,承担全球低时延宽带互联网覆盖任务,运行于近地轨道,可支持偏远地区网络接入、移动终端联网,是星链大规模组网部署中的组成部分。

Basic Information
目录编号:
58091
目录名称:
STARLINK-30608
国际标识:
2023-160S
轨道中心:
EARTH
卫星名称:
星链-30608
卫星全名:
星链-30608 (STARLINK-30608 )
卫星状态:
在轨 (已飞行1052 天)
发射日期:
2023-10-18 UTC
国别 :
美国 (US)
星等 :
--
Orbit Information
数据来源 国际轨道数据 AOE轨道数据
星历时间 2026-09-04T10:54:59+0800
10小时前
查看轨道信息
2026-09-03T23:00:00+0800
22小时前
查看轨道信息
半长轴 6861.199km 6861.114km
偏心率 0.0001405 0.0001279
轨道倾角 43.004° 43.003°
近地点辐角 242.151° 258.114°
升交点赤经 150.284° 153.090°
平近点角 117.920° 248.314°
近地点 482.098km 482.099km
远地点 484.026km 483.855km
周期 94.267分钟 94.265分钟
每日圈数 15.27576 15.276042
Detailed Information
固有亮度:
5
最大亮度:
0.3
卫星平台:
Starlink v2.0 mini
覆盖范围:
全球
运营商:
太空探索技术公司
运营商所在国:
美国
制造商(研发单位):
太空探索技术公司
制造商所在国:
美国
使用方式:
暂无
Satellite Introduction
星链(Starlink)计划是由太空探索技术公司(SpaceX)提出的一个巨型低轨卫星互联网星座项目,计划在2019年至2024年间在太空搭建由约1.2万颗卫星组成的“星链”网络,其中1584颗将部署在地球上空550千米处的近地轨道,并从2020年开始工作。该卫星仍在工作。
2D Orbit Map
3D Orbit Map
Orbit Altitude Analysis Chart
Orbit Inclination Analysis Chart
Orbit Comprehensive Analysis Chart
View Comprehensive Chart
Conjunction Data List
Event ID Objects TCA Miss Dist (km) Collision Risk Probability Collision Risk Index (CRI) Action
CDM_260904-002605-809106-434421
2026-09-04T
00:26:49+0000
0.503 km
远距离
1.819098E-4 高风险 0.8
CDM_260906-200905-809106-646121
2026-09-06T
20:09:02+0000
0.799 km
远距离
4.305655E-5 中风险 0.68
CDM_260906-064805-809106-646121
2026-09-06T
06:48:44+0000
1.004 km
极远距离
2.009084E-5 中风险 0.61
CDM_260904-020105-809106-434421
2026-09-04T
02:01:01+0000
1.465 km
极远距离
6.440406E-6 低风险 0.51
CDM_260906-082205-809106-646121
2026-09-06T
08:22:53+0000
1.703 km
极远距离
3.431233E-6 低风险 0.46
CDM_260905-103905-809106-329721
OBJECT G (63297)
2026-09-05T
10:39:12+0000
2.976 km
极远距离
1.222279E-6 低风险 0.37
CDM_260905-034105-706105-809121
2026-09-05T
03:41:25+0000
2.553 km
极远距离
7.149279E-7 极低风险 0.32